Location: Dilsberg
(49.3983°N, 8.8354°E)
Time: 23:43:24
(UTC+00:00)

Cosmos 1900 - Pass Details

Date: 19 May 2025
Orbit: 677 x 738 km, 66.1° (Epoch: 22 June)

Event Time Altitude Azimuth Distance (km) Brightness Sun altitude
Rises 20:32:06 0° 322° (NW) 3,154 9.9 -11.2°
Reaches altitude 10° 20:34:27 10° 321° (NW) 2,236 8.5 -11.4°
Maximum altitude 20:39:34 80° 236° (SW) 753 4.5 -11.9°
Enters shadow 20:43:32 17° 150° (SSE) 1,796 5.8 -12.3°
